Location: Carrières
(48.9495°N, 2.0407°E)
Time: 06:16:12
(UTC+00:00)

Tiros 1 despin weight - Pass Details

Date: 21 April 2024
Orbit: 578 x 620 km, 48.2° (Epoch: 27 May)

Event Time Altitude Azimuth Distance (km) Brightness Sun altitude
Rises 15:00:42 0° 269° (W) 2,847 ? 36.3°
Reaches altitude 10° 15:02:59 10° 268° (W) 1,951 ? 36.0°
Maximum altitude 15:07:28 83° 181° (S) 621 ? 35.3°
Drops below altitude 10° 15:12:01 10° 95° (E) 1,976 ? 34.6°
Sets 15:14:20 0° 94° (E) 2,886 ? 34.3°
